Location: New Town
(33.2710°N, 90.7534°W)
Time: 13:25:55
(UTC+00:00)

Vanguard 3 - Visible Passes

Search period start: 13 May 2021 00:00
Search period end: 23 May 2021 00:00
Orbit: 508 x 3262 km, 33.3° (Epoch: 12 May)

Date Brightness Start Highest point End Pass type
(mag) Time Alt. Az. Time Alt. Az. Time Alt. Az.
13 May 9.8 01:09:03 10° WSW 01:29:09 88° S 01:42:41 10° E visible
13 May 9.0 03:27:42 10° W 03:45:03 85° SSW 03:49:32 45° ESE visible
13 May 9.6 05:46:15 10° WNW 05:54:04 33° W 05:54:04 33° W visible
14 May 9.5 02:09:24 10° W 02:28:46 90° N 02:39:22 16° E visible
14 May 8.7 04:28:08 10° WNW 04:43:37 67° SSW 04:43:54 66° SSW visible
14 May 10.5 06:47:22 10° W 06:48:26 12° W 06:48:26 12° W visible
15 May 10.0 00:51:25 10° W 01:11:45 89° S 01:26:14 10° E visible
15 May 9.2 03:09:53 10° W 03:28:03 82° SSW 03:33:43 39° ESE visible
15 May 9.6 05:28:39 10° WNW 05:38:15 36° WSW 05:38:15 36° WSW visible
16 May 9.7 01:51:41 10° W 02:11:33 90° S 02:23:31 14° E visible
16 May 8.9 04:10:19 10° WNW 04:26:38 63° SSW 04:28:02 59° S visible
16 May 10.5 06:30:16 10° W 06:32:35 14° W 06:32:35 14° W visible
17 May 9.4 02:52:04 10° W 03:10:56 79° SSW 03:17:50 34° ESE visible
17 May 9.6 05:11:01 10° W 05:22:22 37° WSW 05:22:22 37° WSW visible
18 May 9.8 01:34:01 10° W 01:54:14 88° S 02:07:37 12° E visible
18 May 9.1 03:52:30 10° WNW 04:09:31 59° SSW 04:12:09 52° S visible
18 May 10.5 06:13:11 10° W 06:16:40 15° WSW 06:16:40 15° WSW visible
19 May 9.6 02:34:18 10° WNW 02:53:40 76° SSW 03:01:56 30° ESE visible
19 May 9.7 04:53:22 10° W 05:06:27 36° SW 05:06:27 36° SW visible
20 May 10.0 01:16:27 10° W 01:36:49 86° SSW 01:51:36 10° ESE visible
20 May 9.3 03:34:42 10° WNW 03:52:14 55° SSW 03:56:15 44° SSE visible
20 May 10.6 05:56:11 10° W 06:00:47 15° WSW 06:00:47 15° WSW visible
21 May 9.8 02:16:34 10° WNW 02:36:15 72° SSW 02:46:03 25° SE visible
21 May 9.8 04:35:45 10° W 04:49:48 33° SW 04:50:35 33° SW visible
22 May 10.1 00:58:57 10° W 01:19:17 84° SSW 01:34:58 10° ESE visible
22 May 9.6 03:16:56 10° WNW 03:34:49 52° SW 03:40:24 37° SSE visible
22 May 10.6 05:39:23 10° W 05:44:56 15° WSW 05:44:56 15° WSW visible
